Location: Finkenbach
(49.5340°N, 8.9188°E)
Time: 21:35:08
(UTC+00:00)

USA 59 Rocket - Pass Details

Date: 17 June 2025
Orbit: 372 x 1693 km, 63.3° (Epoch: 16 July)

Event Time Altitude Azimuth Distance (km) Brightness Sun altitude
Rises 21:33:29 0° 323° (NW) 2,331 4.8 -12.9°
Reaches altitude 10° 21:35:30 10° 334° (NNW) 1,548 3.6 -13.1°
Maximum altitude 21:38:32 31° 40° (NE) 900 1.2 -13.3°
Drops below altitude 10° 21:42:21 10° 103° (ESE) 1,959 2.3 -13.5°
Enters shadow 21:42:43 - 105° (ESE) 2,098 2.4 -13.6°
